Location: Unspecified
(49.2170°N, 0.0000°E)
Time: 03:07:15
(UTC+00:00)

Vanguard 3 - Pass Details

Date: 01 July 2019
Orbit: 507 x 3264 km, 33.4° (Epoch: 22 July)

Event Time Altitude Azimuth Distance (km) Brightness Sun altitude
Rises 14:06:51 0° 269° (W) 5,932 12.0 54.4°
Reaches altitude 10° 14:13:26 10° 251° (WSW) 4,270 11.6 53.6°
Maximum altitude 14:18:44 15° 222° (SW) 3,299 11.2 52.8°
Drops below altitude 10° 14:22:55 10° 190° (S) 3,182 10.7 52.2°
Sets 14:26:38 0° 167° (SSE) 3,696 10.7 51.7°
